Time,TemperatureF,DewpointF,PressureIn,WindDirection,WindDirectionDegrees,WindSpeedMPH,WindSpeedGustMPH,Humidity,HourlyPrecipIn,Conditions,Clouds,dailyrainin,SoftwareType,DateUTC
2013-03-02 00:00:00,30.1,25.0,29.62,NE,45,1.0,5.0,81,0.00,,,0.00,WeatherCatV1.13B119,2013-03-02 05:00:00,
2013-03-02 00:05:00,30.1,25.0,29.62,NE,45,1.0,5.0,81,0.00,,,0.00,WeatherCatV1.13B119,2013-03-02 05:05:00,
2013-03-02 00:10:00,29.9,24.8,29.62,SSE,158,1.0,4.0,81,0.00,,,0.00,WeatherCatV1.13B119,2013-03-02 05:10:00,
2013-03-02 00:15:00,29.9,24.8,29.62,SSE,158,1.0,4.0,81,0.00,,,0.00,WeatherCatV1.13B119,2013-03-02 05:15:00,
2013-03-02 00:20:00,29.9,24.8,29.62,SSE,158,1.0,4.0,81,0.00,,,0.00,WeatherCatV1.13B119,2013-03-02 05:20:00,
2013-03-02 00:25:00,30.1,25.0,29.62,SE,135,1.0,5.0,81,0.00,,,0.00,WeatherCatV1.13B119,2013-03-02 05:25:00,
2013-03-02 00:30:00,30.1,25.0,29.62,SE,135,1.0,5.0,81,0.00,,,0.00,WeatherCatV1.13B119,2013-03-02 05:30:00,
2013-03-02 00:35:00,30.1,25.0,29.62,SE,135,1.0,5.0,81,0.00,,,0.00,WeatherCatV1.13B119,2013-03-02 05:35:00,
2013-03-02 00:40:00,30.1,25.3,29.62,ESE,112,2.0,6.0,82,0.00,,,0.00,WeatherCatV1.13B119,2013-03-02 05:40:00,
2013-03-02 00:45:00,30.1,25.3,29.62,ESE,112,2.0,6.0,82,0.00,,,0.00,WeatherCatV1.13B119,2013-03-02 05:45:00,
2013-03-02 00:50:00,30.1,25.3,29.62,ESE,112,2.0,6.0,82,0.00,,,0.00,WeatherCatV1.13B119,2013-03-02 05:50:00,
2013-03-02 00:55:00,30.1,25.6,29.62,ENE,68,2.0,5.0,83,0.00,,,0.00,WeatherCatV1.13B119,2013-03-02 05:55:00,
2013-03-02 01:00:00,30.1,25.6,29.62,ENE,68,2.0,5.0,83,0.00,,,0.00,WeatherCatV1.13B119,2013-03-02 06:00:00,
2013-03-02 01:05:00,30.1,25.6,29.62,ENE,68,2.0,5.0,83,0.00,,,0.00,WeatherCatV1.13B119,2013-03-02 06:05:00,
2013-03-02 01:10:00,30.1,25.6,29.62,ENE,68,2.0,7.0,83,0.00,,,0.00,WeatherCatV1.13B119,2013-03-02 06:10:00,
2013-03-02 01:15:00,30.1,25.6,29.62,ENE,68,2.0,7.0,83,0.00,,,0.00,WeatherCatV1.13B119,2013-03-02 06:15:00,
2013-03-02 01:20:00,30.1,25.6,29.62,ENE,68,2.0,7.0,83,0.00,,,0.00,WeatherCatV1.13B119,2013-03-02 06:20:00,
2013-03-02 01:25:00,29.9,25.4,29.62,ENE,68,2.0,6.0,83,0.00,,,0.00,WeatherCatV1.13B119,2013-03-02 06:25:00,
2013-03-02 01:30:00,29.9,25.4,29.62,ENE,68,2.0,6.0,83,0.00,,,0.00,WeatherCatV1.13B119,2013-03-02 06:30:00,
2013-03-02 01:35:00,29.9,25.4,29.62,ENE,68,2.0,6.0,83,0.00,,,0.00,WeatherCatV1.13B119,2013-03-02 06:35:00,
2013-03-02 01:40:00,30.0,25.2,29.62,East,90,2.0,8.0,82,0.00,,,0.00,WeatherCatV1.13B119,2013-03-02 06:40:00,
2013-03-02 01:45:00,30.0,25.2,29.62,East,90,2.0,8.0,82,0.00,,,0.00,WeatherCatV1.13B119,2013-03-02 06:45:00,
2013-03-02 01:50:00,30.0,25.2,29.62,East,90,2.0,8.0,82,0.00,,,0.00,WeatherCatV1.13B119,2013-03-02 06:50:00,
2013-03-02 01:55:00,30.1,25.3,29.61,ESE,112,2.0,6.0,82,0.00,,,0.00,WeatherCatV1.13B119,2013-03-02 06:55:00,
2013-03-02 02:00:00,30.1,25.3,29.61,ESE,112,2.0,6.0,82,0.00,,,0.00,WeatherCatV1.13B119,2013-03-02 07:00:00,
2013-03-02 02:05:00,30.1,25.3,29.61,ESE,112,2.0,6.0,82,0.00,,,0.00,WeatherCatV1.13B119,2013-03-02 07:05:00,
2013-03-02 02:10:00,30.3,24.9,29.61,ENE,68,1.0,5.0,80,0.00,,,0.00,WeatherCatV1.13B119,2013-03-02 07:10:00,
2013-03-02 02:15:00,30.3,24.9,29.61,ENE,68,1.0,5.0,80,0.00,,,0.00,WeatherCatV1.13B119,2013-03-02 07:15:00,
2013-03-02 02:20:00,30.3,24.9,29.61,ENE,68,1.0,5.0,80,0.00,,,0.00,WeatherCatV1.13B119,2013-03-02 07:20:00,
2013-03-02 02:25:00,30.1,24.7,29.61,ENE,68,2.0,7.0,80,0.00,,,0.00,WeatherCatV1.13B119,2013-03-02 07:25:00,
2013-03-02 02:30:00,30.1,24.7,29.61,ENE,68,2.0,7.0,80,0.00,,,0.00,WeatherCatV1.13B119,2013-03-02 07:30:00,
2013-03-02 02:35:00,30.1,24.7,29.61,ENE,68,2.0,7.0,80,0.00,,,0.00,WeatherCatV1.13B119,2013-03-02 07:35:00,
2013-03-02 02:40:00,29.7,24.9,29.61,NE,45,2.0,6.0,82,0.00,,,0.00,WeatherCatV1.13B119,2013-03-02 07:40:00,
2013-03-02 02:45:00,29.7,24.9,29.61,NE,45,2.0,6.0,82,0.00,,,0.00,WeatherCatV1.13B119,2013-03-02 07:45:00,
2013-03-02 02:50:00,29.7,24.9,29.61,NE,45,2.0,6.0,82,0.00,,,0.00,WeatherCatV1.13B119,2013-03-02 07:50:00,
2013-03-02 02:55:00,29.6,24.8,29.61,ENE,68,2.0,6.0,82,0.00,,,0.00,WeatherCatV1.13B119,2013-03-02 07:55:00,
2013-03-02 03:00:00,29.6,24.8,29.61,ENE,68,2.0,6.0,82,0.00,,,0.00,WeatherCatV1.13B119,2013-03-02 08:00:00,
2013-03-02 03:05:00,29.6,24.8,29.61,ENE,68,2.0,6.0,82,0.00,,,0.00,WeatherCatV1.13B119,2013-03-02 08:05:00,
2013-03-02 03:10:00,29.7,24.0,29.61,ESE,112,2.0,6.0,79,0.00,,,0.00,WeatherCatV1.13B119,2013-03-02 08:10:00,
2013-03-02 03:15:00,29.7,24.0,29.61,ESE,112,2.0,6.0,79,0.00,,,0.00,WeatherCatV1.13B119,2013-03-02 08:15:00,
2013-03-02 03:20:00,29.7,24.0,29.61,ESE,112,2.0,6.0,79,0.00,,,0.00,WeatherCatV1.13B119,2013-03-02 08:20:00,
2013-03-02 03:25:00,29.8,23.8,29.61,ENE,68,2.0,5.0,78,0.00,,,0.00,WeatherCatV1.13B119,2013-03-02 08:25:00,
2013-03-02 03:30:00,29.8,23.8,29.61,ENE,68,2.0,5.0,78,0.00,,,0.00,WeatherCatV1.13B119,2013-03-02 08:30:00,
2013-03-02 03:35:00,29.8,23.8,29.61,ENE,68,2.0,5.0,78,0.00,,,0.00,WeatherCatV1.13B119,2013-03-02 08:35:00,
2013-03-02 03:40:00,29.8,23.8,29.61,ESE,112,1.0,4.0,78,0.00,,,0.00,WeatherCatV1.13B119,2013-03-02 08:40:00,
2013-03-02 03:45:00,29.8,23.8,29.61,ESE,112,1.0,4.0,78,0.00,,,0.00,WeatherCatV1.13B119,2013-03-02 08:45:00,
2013-03-02 03:50:00,29.8,23.8,29.61,ESE,112,1.0,4.0,78,0.00,,,0.00,WeatherCatV1.13B119,2013-03-02 08:50:00,
2013-03-02 03:55:00,30.0,24.0,29.61,ESE,112,1.0,5.0,78,0.00,,,0.00,WeatherCatV1.13B119,2013-03-02 08:55:00,
2013-03-02 04:00:00,30.0,24.0,29.61,ESE,112,1.0,5.0,78,0.00,,,0.00,WeatherCatV1.13B119,2013-03-02 09:00:00,
2013-03-02 04:05:00,30.0,24.0,29.61,ESE,112,1.0,5.0,78,0.00,,,0.00,WeatherCatV1.13B119,2013-03-02 09:05:00,
2013-03-02 04:10:00,29.9,23.9,29.60,ESE,112,1.0,5.0,78,0.00,,,0.00,WeatherCatV1.13B119,2013-03-02 09:10:00,
2013-03-02 04:15:00,29.9,23.9,29.60,ESE,112,1.0,5.0,78,0.00,,,0.00,WeatherCatV1.13B119,2013-03-02 09:15:00,
2013-03-02 04:20:00,29.9,23.9,29.60,ESE,112,1.0,5.0,78,0.00,,,0.00,WeatherCatV1.13B119,2013-03-02 09:20:00,
2013-03-02 04:25:00,29.8,23.8,29.60,SSE,158,2.0,7.0,78,0.00,,,0.00,WeatherCatV1.13B119,2013-03-02 09:25:00,
2013-03-02 04:30:00,29.8,23.8,29.60,SSE,158,2.0,7.0,78,0.00,,,0.00,WeatherCatV1.13B119,2013-03-02 09:30:00,
2013-03-02 04:35:00,29.8,23.8,29.60,SSE,158,2.0,7.0,78,0.00,,,0.00,WeatherCatV1.13B119,2013-03-02 09:35:00,
2013-03-02 04:40:00,29.8,23.8,29.61,ESE,112,2.0,6.0,78,0.00,,,0.00,WeatherCatV1.13B119,2013-03-02 09:40:00,
2013-03-02 04:45:00,29.8,23.8,29.61,ESE,112,2.0,6.0,78,0.00,,,0.00,WeatherCatV1.13B119,2013-03-02 09:45:00,
2013-03-02 04:50:00,29.8,23.8,29.61,ESE,112,2.0,6.0,78,0.00,,,0.00,WeatherCatV1.13B119,2013-03-02 09:50:00,
2013-03-02 04:55:00,29.7,23.7,29.61,SW,225,1.0,5.0,78,0.00,,,0.00,WeatherCatV1.13B119,2013-03-02 09:55:00,
2013-03-02 05:00:00,29.7,23.7,29.61,SW,225,1.0,5.0,78,0.00,,,0.00,WeatherCatV1.13B119,2013-03-02 10:00:00,
2013-03-02 05:05:00,29.7,23.7,29.61,SW,225,1.0,5.0,78,0.00,,,0.00,WeatherCatV1.13B119,2013-03-02 10:05:00,
2013-03-02 05:10:00,29.7,24.0,29.62,ESE,112,1.0,4.0,79,0.00,,,0.00,WeatherCatV1.13B119,2013-03-02 10:10:00,
2013-03-02 05:15:00,29.7,24.0,29.62,ESE,112,1.0,4.0,79,0.00,,,0.00,WeatherCatV1.13B119,2013-03-02 10:15:00,
2013-03-02 05:20:00,29.7,24.0,29.62,ESE,112,1.0,4.0,79,0.00,,,0.00,WeatherCatV1.13B119,2013-03-02 10:20:00,
2013-03-02 05:25:00,29.8,24.1,29.62,SSE,158,1.0,5.0,79,0.00,,,0.00,WeatherCatV1.13B119,2013-03-02 10:25:00,
2013-03-02 05:30:00,29.8,24.1,29.62,SSE,158,1.0,5.0,79,0.00,,,0.00,WeatherCatV1.13B119,2013-03-02 10:30:00,
2013-03-02 05:35:00,29.8,24.1,29.62,SSE,158,1.0,5.0,79,0.00,,,0.00,WeatherCatV1.13B119,2013-03-02 10:35:00,
2013-03-02 05:40:00,30.1,23.8,29.61,SSE,158,2.0,8.0,77,0.00,,,0.00,WeatherCatV1.13B119,2013-03-02 10:40:00,
2013-03-02 05:45:00,30.1,23.8,29.61,SSE,158,2.0,8.0,77,0.00,,,0.00,WeatherCatV1.13B119,2013-03-02 10:45:00,
2013-03-02 05:50:00,30.1,23.8,29.61,SSE,158,2.0,8.0,77,0.00,,,0.00,WeatherCatV1.13B119,2013-03-02 10:50:00,
2013-03-02 05:55:00,30.0,24.0,29.61,East,90,1.0,4.0,78,0.00,,,0.00,WeatherCatV1.13B119,2013-03-02 10:55:00,
2013-03-02 06:00:00,30.0,24.0,29.61,East,90,1.0,4.0,78,0.00,,,0.00,WeatherCatV1.13B119,2013-03-02 11:00:00,
2013-03-02 06:05:00,30.0,24.0,29.61,East,90,1.0,4.0,78,0.00,,,0.00,WeatherCatV1.13B119,2013-03-02 11:05:00,
2013-03-02 06:10:00,29.8,24.1,29.61,SW,225,0.0,3.0,79,0.00,,,0.00,WeatherCatV1.13B119,2013-03-02 11:10:00,
2013-03-02 06:15:00,29.8,24.1,29.61,SW,225,0.0,3.0,79,0.00,,,0.00,WeatherCatV1.13B119,2013-03-02 11:15:00,
2013-03-02 06:20:00,29.8,24.1,29.61,SW,225,0.0,3.0,79,0.00,,,0.00,WeatherCatV1.13B119,2013-03-02 11:20:00,
2013-03-02 06:25:00,29.9,24.2,29.61,ESE,112,1.0,6.0,79,0.00,,,0.00,WeatherCatV1.13B119,2013-03-02 11:25:00,
2013-03-02 06:30:00,29.9,24.2,29.61,ESE,112,1.0,6.0,79,0.00,,,0.00,WeatherCatV1.13B119,2013-03-02 11:30:00,
2013-03-02 06:35:00,29.9,24.2,29.61,ESE,112,1.0,6.0,79,0.00,,,0.00,WeatherCatV1.13B119,2013-03-02 11:35:00,
2013-03-02 06:40:00,29.4,24.3,29.61,ENE,68,1.0,4.0,81,0.00,,,0.00,WeatherCatV1.13B119,2013-03-02 11:40:00,
2013-03-02 06:45:00,29.4,24.3,29.61,ENE,68,1.0,4.0,81,0.00,,,0.00,WeatherCatV1.13B119,2013-03-02 11:45:00,
2013-03-02 06:50:00,29.4,24.3,29.61,ENE,68,1.0,4.0,81,0.00,,,0.00,WeatherCatV1.13B119,2013-03-02 11:50:00,
2013-03-02 06:55:00,29.7,24.3,29.61,SSW,202,2.0,9.0,80,0.00,,,0.00,WeatherCatV1.13B119,2013-03-02 11:55:00,
2013-03-02 07:00:00,29.7,24.3,29.61,SSW,202,2.0,9.0,80,0.00,,,0.00,WeatherCatV1.13B119,2013-03-02 12:00:00,
2013-03-02 07:05:00,29.7,24.3,29.61,SSW,202,2.0,9.0,80,0.00,,,0.00,WeatherCatV1.13B119,2013-03-02 12:05:00,
2013-03-02 07:10:00,30.0,24.0,29.60,ESE,112,2.0,12.0,78,0.00,,,0.00,WeatherCatV1.13B119,2013-03-02 12:10:00,
2013-03-02 07:15:00,30.0,24.0,29.60,ESE,112,2.0,12.0,78,0.00,,,0.00,WeatherCatV1.13B119,2013-03-02 12:15:00,
2013-03-02 07:20:00,30.0,24.0,29.60,ESE,112,2.0,12.0,78,0.00,,,0.00,WeatherCatV1.13B119,2013-03-02 12:20:00,
2013-03-02 07:25:00,30.5,23.8,29.61,East,90,2.0,10.0,76,0.00,,,0.00,WeatherCatV1.13B119,2013-03-02 12:25:00,
2013-03-02 07:30:00,30.5,23.8,29.61,East,90,2.0,10.0,76,0.00,,,0.00,WeatherCatV1.13B119,2013-03-02 12:30:00,
2013-03-02 07:35:00,30.5,23.8,29.61,East,90,2.0,10.0,76,0.00,,,0.00,WeatherCatV1.13B119,2013-03-02 12:35:00,
2013-03-02 07:40:00,31.2,23.9,29.61,ESE,112,4.0,12.0,74,0.00,,,0.00,WeatherCatV1.13B119,2013-03-02 12:40:00,
2013-03-02 07:45:00,31.2,23.9,29.61,ESE,112,4.0,12.0,74,0.00,,,0.00,WeatherCatV1.13B119,2013-03-02 12:45:00,
2013-03-02 07:50:00,31.2,23.9,29.61,ESE,112,4.0,12.0,74,0.00,,,0.00,WeatherCatV1.13B119,2013-03-02 12:50:00,
2013-03-02 07:55:00,31.7,24.4,29.61,NE,45,4.0,19.0,74,0.00,,,0.00,WeatherCatV1.13B119,2013-03-02 12:55:00,
2013-03-02 08:00:00,31.7,24.4,29.61,NE,45,4.0,19.0,74,0.00,,,0.00,WeatherCatV1.13B119,2013-03-02 13:00:00,
2013-03-02 08:05:00,31.7,24.4,29.61,NE,45,4.0,19.0,74,0.00,,,0.00,WeatherCatV1.13B119,2013-03-02 13:05:00,
2013-03-02 08:10:00,31.7,24.4,29.61,NE,45,4.0,19.0,74,0.00,,,0.00,WeatherCatV1.13B119,2013-03-02 13:10:00,
2013-03-02 08:15:00,32.0,24.7,29.61,ESE,112,2.0,10.0,74,0.00,,,0.00,WeatherCatV1.13B119,2013-03-02 13:15:00,
2013-03-02 08:20:00,32.0,24.7,29.61,ESE,112,2.0,10.0,74,0.00,,,0.00,WeatherCatV1.13B119,2013-03-02 13:20:00,
2013-03-02 08:25:00,32.0,24.7,29.61,ESE,112,2.0,10.0,74,0.00,,,0.00,WeatherCatV1.13B119,2013-03-02 13:25:00,
2013-03-02 08:30:00,33.3,25.3,29.61,SE,135,3.0,10.0,72,0.00,,,0.00,WeatherCatV1.13B119,2013-03-02 13:30:00,
2013-03-02 08:35:00,33.3,25.3,29.61,SE,135,3.0,10.0,72,0.00,,,0.00,WeatherCatV1.13B119,2013-03-02 13:35:00,
2013-03-02 08:40:00,34.3,25.6,29.61,South,180,2.0,6.0,70,0.00,,,0.00,WeatherCatV1.13B119,2013-03-02 13:40:00,
2013-03-02 08:45:00,34.3,25.6,29.61,South,180,2.0,6.0,70,0.00,,,0.00,WeatherCatV1.13B119,2013-03-02 13:45:00,
2013-03-02 08:50:00,34.3,25.6,29.61,South,180,2.0,6.0,70,0.00,,,0.00,WeatherCatV1.13B119,2013-03-02 13:50:00,
2013-03-02 08:55:00,35.1,25.6,29.60,SSW,202,2.0,13.0,68,0.00,,,0.00,WeatherCatV1.13B119,2013-03-02 13:55:00,
2013-03-02 09:00:00,35.1,25.6,29.60,SSW,202,2.0,13.0,68,0.00,,,0.00,WeatherCatV1.13B119,2013-03-02 14:00:00,
2013-03-02 09:05:00,35.1,25.6,29.60,SSW,202,2.0,13.0,68,0.00,,,0.00,WeatherCatV1.13B119,2013-03-02 14:05:00,
2013-03-02 09:10:00,36.4,25.8,29.60,ESE,112,2.0,11.0,65,0.00,,,0.00,WeatherCatV1.13B119,2013-03-02 14:10:00,
2013-03-02 09:15:00,36.4,25.8,29.60,ESE,112,2.0,11.0,65,0.00,,,0.00,WeatherCatV1.13B119,2013-03-02 14:15:00,
2013-03-02 09:20:00,36.4,25.8,29.60,ESE,112,2.0,11.0,65,0.00,,,0.00,WeatherCatV1.13B119,2013-03-02 14:20:00,
2013-03-02 09:25:00,37.5,26.8,29.60,SE,135,1.0,7.0,65,0.00,,,0.00,WeatherCatV1.13B119,2013-03-02 14:25:00,
2013-03-02 09:30:00,37.5,26.8,29.60,SE,135,1.0,7.0,65,0.00,,,0.00,WeatherCatV1.13B119,2013-03-02 14:30:00,
2013-03-02 09:35:00,37.5,26.8,29.60,SE,135,1.0,7.0,65,0.00,,,0.00,WeatherCatV1.13B119,2013-03-02 14:35:00,
2013-03-02 09:40:00,37.1,25.3,29.59,SE,135,2.0,6.0,62,0.00,,,0.00,WeatherCatV1.13B119,2013-03-02 14:40:00,
2013-03-02 09:45:00,37.1,25.3,29.59,SE,135,2.0,6.0,62,0.00,,,0.00,WeatherCatV1.13B119,2013-03-02 14:45:00,
2013-03-02 09:50:00,37.1,25.3,29.59,SE,135,2.0,6.0,62,0.00,,,0.00,WeatherCatV1.13B119,2013-03-02 14:50:00,
2013-03-02 09:55:00,36.5,25.9,29.59,SSE,158,3.0,12.0,65,0.00,,,0.00,WeatherCatV1.13B119,2013-03-02 14:55:00,
2013-03-02 10:00:00,36.5,25.9,29.59,SSE,158,3.0,12.0,65,0.00,,,0.00,WeatherCatV1.13B119,2013-03-02 15:00:00,
2013-03-02 10:05:00,36.5,25.9,29.59,SSE,158,3.0,12.0,65,0.00,,,0.00,WeatherCatV1.13B119,2013-03-02 15:05:00,
2013-03-02 10:10:00,37.2,26.2,29.60,South,180,3.0,12.0,64,0.00,,,0.00,WeatherCatV1.13B119,2013-03-02 15:10:00,
2013-03-02 10:15:00,37.2,26.2,29.60,South,180,3.0,12.0,64,0.00,,,0.00,WeatherCatV1.13B119,2013-03-02 15:15:00,
2013-03-02 10:20:00,37.2,26.2,29.60,South,180,3.0,12.0,64,0.00,,,0.00,WeatherCatV1.13B119,2013-03-02 15:20:00,
2013-03-02 10:25:00,38.5,26.6,29.60,SSW,202,1.0,5.0,62,0.00,,,0.00,WeatherCatV1.13B119,2013-03-02 15:25:00,
2013-03-02 10:30:00,38.5,26.6,29.60,SSW,202,1.0,5.0,62,0.00,,,0.00,WeatherCatV1.13B119,2013-03-02 15:30:00,
2013-03-02 10:35:00,38.5,26.6,29.60,SSW,202,1.0,5.0,62,0.00,,,0.00,WeatherCatV1.13B119,2013-03-02 15:35:00,
2013-03-02 10:40:00,38.2,26.3,29.60,ENE,68,1.0,6.0,62,0.00,,,0.00,WeatherCatV1.13B119,2013-03-02 15:40:00,
2013-03-02 10:45:00,38.2,26.3,29.60,ENE,68,1.0,6.0,62,0.00,,,0.00,WeatherCatV1.13B119,2013-03-02 15:45:00,
2013-03-02 10:50:00,38.2,26.3,29.60,ENE,68,1.0,6.0,62,0.00,,,0.00,WeatherCatV1.13B119,2013-03-02 15:50:00,
2013-03-02 10:55:00,38.7,26.8,29.60,NNW,338,1.0,5.0,62,0.00,,,0.00,WeatherCatV1.13B119,2013-03-02 15:55:00,
2013-03-02 11:00:00,38.7,26.8,29.60,NNW,338,1.0,5.0,62,0.00,,,0.00,WeatherCatV1.13B119,2013-03-02 16:00:00,
2013-03-02 11:05:00,38.7,26.8,29.60,NNW,338,1.0,5.0,62,0.00,,,0.00,WeatherCatV1.13B119,2013-03-02 16:05:00,
2013-03-02 11:10:00,37.8,27.5,29.61,ENE,68,2.0,5.0,66,0.00,,,0.00,WeatherCatV1.13B119,2013-03-02 16:10:00,
2013-03-02 11:15:00,37.8,27.5,29.61,ENE,68,2.0,5.0,66,0.00,,,0.00,WeatherCatV1.13B119,2013-03-02 16:15:00,
2013-03-02 11:20:00,37.8,27.5,29.61,ENE,68,2.0,5.0,66,0.00,,,0.00,WeatherCatV1.13B119,2013-03-02 16:20:00,
2013-03-02 11:25:00,37.4,26.3,29.61,ESE,112,2.0,7.0,64,0.00,,,0.00,WeatherCatV1.13B119,2013-03-02 16:25:00,
2013-03-02 11:30:00,37.4,26.3,29.61,ESE,112,2.0,7.0,64,0.00,,,0.00,WeatherCatV1.13B119,2013-03-02 16:30:00,
2013-03-02 11:35:00,37.4,26.3,29.61,ESE,112,2.0,7.0,64,0.00,,,0.00,WeatherCatV1.13B119,2013-03-02 16:35:00,
2013-03-02 11:40:00,37.0,26.3,29.61,ESE,112,2.0,9.0,65,0.00,,,0.00,WeatherCatV1.13B119,2013-03-02 16:40:00,
2013-03-02 11:45:00,37.0,26.3,29.61,ESE,112,2.0,9.0,65,0.00,,,0.00,WeatherCatV1.13B119,2013-03-02 16:45:00,
2013-03-02 11:50:00,37.0,26.3,29.61,ESE,112,2.0,9.0,65,0.00,,,0.00,WeatherCatV1.13B119,2013-03-02 16:50:00,
2013-03-02 11:55:00,38.6,26.7,29.60,ESE,112,2.0,7.0,62,0.00,,,0.00,WeatherCatV1.13B119,2013-03-02 16:55:00,
2013-03-02 12:00:00,38.6,26.7,29.60,ESE,112,2.0,7.0,62,0.00,,,0.00,WeatherCatV1.13B119,2013-03-02 17:00:00,
2013-03-02 12:05:00,38.6,26.7,29.60,ESE,112,2.0,7.0,62,0.00,,,0.00,WeatherCatV1.13B119,2013-03-02 17:05:00,
2013-03-02 12:10:00,37.9,26.8,29.60,ENE,68,3.0,12.0,64,0.00,,,0.00,WeatherCatV1.13B119,2013-03-02 17:10:00,
2013-03-02 12:15:00,37.9,26.8,29.60,ENE,68,3.0,12.0,64,0.00,,,0.00,WeatherCatV1.13B119,2013-03-02 17:15:00,
2013-03-02 12:20:00,37.9,26.8,29.60,ENE,68,3.0,12.0,64,0.00,,,0.00,WeatherCatV1.13B119,2013-03-02 17:20:00,
2013-03-02 12:25:00,37.7,25.9,29.60,East,90,3.0,11.0,62,0.00,,,0.00,WeatherCatV1.13B119,2013-03-02 17:25:00,
2013-03-02 12:30:00,37.7,25.9,29.60,East,90,3.0,11.0,62,0.00,,,0.00,WeatherCatV1.13B119,2013-03-02 17:30:00,
2013-03-02 12:35:00,37.7,25.9,29.60,East,90,3.0,11.0,62,0.00,,,0.00,WeatherCatV1.13B119,2013-03-02 17:35:00,
2013-03-02 12:40:00,37.7,26.3,29.59,ESE,112,2.0,7.0,63,0.00,,,0.00,WeatherCatV1.13B119,2013-03-02 17:40:00,
2013-03-02 12:45:00,37.7,26.3,29.59,ESE,112,2.0,7.0,63,0.00,,,0.00,WeatherCatV1.13B119,2013-03-02 17:45:00,
2013-03-02 12:50:00,37.7,26.3,29.59,ESE,112,2.0,7.0,63,0.00,,,0.00,WeatherCatV1.13B119,2013-03-02 17:50:00,
2013-03-02 12:55:00,37.5,25.3,29.59,SE,135,2.0,8.0,61,0.00,,,0.00,WeatherCatV1.13B119,2013-03-02 17:55:00,
2013-03-02 13:00:00,37.5,25.3,29.59,SE,135,2.0,8.0,61,0.00,,,0.00,WeatherCatV1.13B119,2013-03-02 18:00:00,
2013-03-02 13:05:00,37.5,25.3,29.59,SE,135,2.0,8.0,61,0.00,,,0.00,WeatherCatV1.13B119,2013-03-02 18:05:00,
2013-03-02 13:10:00,37.2,25.8,29.59,East,90,2.0,10.0,63,0.00,,,0.00,WeatherCatV1.13B119,2013-03-02 18:10:00,
2013-03-02 13:15:00,37.2,25.8,29.59,East,90,2.0,10.0,63,0.00,,,0.00,WeatherCatV1.13B119,2013-03-02 18:15:00,
2013-03-02 13:20:00,37.2,25.8,29.59,East,90,2.0,10.0,63,0.00,,,0.00,WeatherCatV1.13B119,2013-03-02 18:20:00,
2013-03-02 13:25:00,37.8,26.0,29.59,South,180,2.0,7.0,62,0.00,,,0.00,WeatherCatV1.13B119,2013-03-02 18:25:00,
2013-03-02 13:30:00,37.8,26.0,29.59,South,180,2.0,7.0,62,0.00,,,0.00,WeatherCatV1.13B119,2013-03-02 18:30:00,
2013-03-02 13:35:00,37.8,26.0,29.59,South,180,2.0,7.0,62,0.00,,,0.00,WeatherCatV1.13B119,2013-03-02 18:35:00,
2013-03-02 13:40:00,38.2,25.6,29.59,East,90,3.0,10.0,60,0.00,,,0.00,WeatherCatV1.13B119,2013-03-02 18:40:00,
2013-03-02 13:45:00,38.2,25.6,29.59,East,90,3.0,10.0,60,0.00,,,0.00,WeatherCatV1.13B119,2013-03-02 18:45:00,
2013-03-02 13:50:00,38.2,25.6,29.59,East,90,3.0,10.0,60,0.00,,,0.00,WeatherCatV1.13B119,2013-03-02 18:50:00,
2013-03-02 13:55:00,37.5,25.7,29.59,ENE,68,2.0,7.0,62,0.00,,,0.00,WeatherCatV1.13B119,2013-03-02 18:55:00,
2013-03-02 14:00:00,37.5,25.7,29.59,ENE,68,2.0,7.0,62,0.00,,,0.00,WeatherCatV1.13B119,2013-03-02 19:00:00,
2013-03-02 14:05:00,37.5,25.7,29.59,ENE,68,2.0,7.0,62,0.00,,,0.00,WeatherCatV1.13B119,2013-03-02 19:05:00,
2013-03-02 14:10:00,37.6,25.8,29.59,SE,135,2.0,7.0,62,0.00,,,0.00,WeatherCatV1.13B119,2013-03-02 19:10:00,
2013-03-02 14:15:00,37.6,25.8,29.59,SE,135,2.0,7.0,62,0.00,,,0.00,WeatherCatV1.13B119,2013-03-02 19:15:00,
2013-03-02 14:20:00,37.6,25.8,29.59,SE,135,2.0,7.0,62,0.00,,,0.00,WeatherCatV1.13B119,2013-03-02 19:20:00,
2013-03-02 14:25:00,37.2,25.8,29.59,SSE,158,1.0,5.0,63,0.00,,,0.00,WeatherCatV1.13B119,2013-03-02 19:25:00,
2013-03-02 14:30:00,37.2,25.8,29.59,SSE,158,1.0,5.0,63,0.00,,,0.00,WeatherCatV1.13B119,2013-03-02 19:30:00,
2013-03-02 14:35:00,37.2,25.8,29.59,SSE,158,1.0,5.0,63,0.00,,,0.00,WeatherCatV1.13B119,2013-03-02 19:35:00,
2013-03-02 14:40:00,36.9,26.3,29.60,SE,135,2.0,9.0,65,0.00,,,0.00,WeatherCatV1.13B119,2013-03-02 19:40:00,
2013-03-02 14:45:00,36.9,26.3,29.60,SE,135,2.0,9.0,65,0.00,,,0.00,WeatherCatV1.13B119,2013-03-02 19:45:00,
2013-03-02 14:50:00,36.9,26.3,29.60,SE,135,2.0,9.0,65,0.00,,,0.00,WeatherCatV1.13B119,2013-03-02 19:50:00,
2013-03-02 14:55:00,37.0,25.6,29.59,ESE,112,2.0,5.0,63,0.00,,,0.00,WeatherCatV1.13B119,2013-03-02 19:55:00,
2013-03-02 15:00:00,37.0,25.6,29.59,ESE,112,2.0,5.0,63,0.00,,,0.00,WeatherCatV1.13B119,2013-03-02 20:00:00,
2013-03-02 15:05:00,37.0,25.6,29.59,ESE,112,2.0,5.0,63,0.00,,,0.00,WeatherCatV1.13B119,2013-03-02 20:05:00,
2013-03-02 15:10:00,36.7,24.9,29.60,South,180,2.0,7.0,62,0.00,,,0.00,WeatherCatV1.13B119,2013-03-02 20:10:00,
2013-03-02 15:15:00,36.7,24.9,29.60,South,180,2.0,7.0,62,0.00,,,0.00,WeatherCatV1.13B119,2013-03-02 20:15:00,
2013-03-02 15:20:00,36.7,24.9,29.60,South,180,2.0,7.0,62,0.00,,,0.00,WeatherCatV1.13B119,2013-03-02 20:20:00,
2013-03-02 15:25:00,36.1,25.9,29.60,SSE,158,2.0,6.0,66,0.00,,,0.00,WeatherCatV1.13B119,2013-03-02 20:25:00,
2013-03-02 15:30:00,36.1,25.9,29.60,SSE,158,2.0,6.0,66,0.00,,,0.00,WeatherCatV1.13B119,2013-03-02 20:30:00,
2013-03-02 15:35:00,36.1,25.9,29.60,SSE,158,2.0,6.0,66,0.00,,,0.00,WeatherCatV1.13B119,2013-03-02 20:35:00,
2013-03-02 15:40:00,35.4,24.8,29.60,South,180,1.0,5.0,65,0.00,,,0.00,WeatherCatV1.13B119,2013-03-02 20:40:00,
2013-03-02 15:45:00,35.4,24.8,29.60,South,180,1.0,5.0,65,0.00,,,0.00,WeatherCatV1.13B119,2013-03-02 20:45:00,
2013-03-02 15:50:00,35.4,24.8,29.60,South,180,1.0,5.0,65,0.00,,,0.00,WeatherCatV1.13B119,2013-03-02 20:50:00,
2013-03-02 15:55:00,34.4,25.3,29.61,SE,135,1.0,5.0,69,0.00,,,0.00,WeatherCatV1.13B119,2013-03-02 20:55:00,
2013-03-02 16:00:00,34.4,25.3,29.61,SE,135,1.0,5.0,69,0.00,,,0.00,WeatherCatV1.13B119,2013-03-02 21:00:00,
2013-03-02 16:05:00,34.4,25.3,29.61,SE,135,1.0,5.0,69,0.00,,,0.00,WeatherCatV1.13B119,2013-03-02 21:05:00,
2013-03-02 16:10:00,33.6,25.2,29.61,SE,135,1.0,5.0,71,0.00,,,0.00,WeatherCatV1.13B119,2013-03-02 21:10:00,
2013-03-02 16:15:00,33.6,25.2,29.61,SE,135,1.0,5.0,71,0.00,,,0.00,WeatherCatV1.13B119,2013-03-02 21:15:00,
2013-03-02 16:20:00,33.6,25.2,29.61,SE,135,1.0,5.0,71,0.00,,,0.00,WeatherCatV1.13B119,2013-03-02 21:20:00,
2013-03-02 16:25:00,33.6,24.9,29.61,ESE,112,1.0,4.0,70,0.00,,,0.00,WeatherCatV1.13B119,2013-03-02 21:25:00,
2013-03-02 16:30:00,33.6,24.9,29.61,ESE,112,1.0,4.0,70,0.00,,,0.00,WeatherCatV1.13B119,2013-03-02 21:30:00,
2013-03-02 16:35:00,33.6,24.9,29.61,ESE,112,1.0,4.0,70,0.00,,,0.00,WeatherCatV1.13B119,2013-03-02 21:35:00,
2013-03-02 16:40:00,33.0,24.6,29.61,SE,135,2.0,7.0,71,0.00,,,0.00,WeatherCatV1.13B119,2013-03-02 21:40:00,
2013-03-02 16:45:00,33.0,24.6,29.61,SE,135,2.0,7.0,71,0.00,,,0.00,WeatherCatV1.13B119,2013-03-02 21:45:00,
2013-03-02 16:50:00,33.0,24.6,29.61,SE,135,2.0,7.0,71,0.00,,,0.00,WeatherCatV1.13B119,2013-03-02 21:50:00,
2013-03-02 16:55:00,32.6,24.6,29.62,South,180,1.0,3.0,72,0.00,,,0.00,WeatherCatV1.13B119,2013-03-02 21:55:00,
2013-03-02 17:00:00,32.6,24.6,29.62,South,180,1.0,3.0,72,0.00,,,0.00,WeatherCatV1.13B119,2013-03-02 22:00:00,
2013-03-02 17:05:00,32.6,24.6,29.62,South,180,1.0,3.0,72,0.00,,,0.00,WeatherCatV1.13B119,2013-03-02 22:05:00,
2013-03-02 17:10:00,32.6,23.6,29.62,SE,135,1.0,4.0,69,0.00,,,0.00,WeatherCatV1.13B119,2013-03-02 22:10:00,
2013-03-02 17:15:00,32.6,23.6,29.62,SE,135,1.0,4.0,69,0.00,,,0.00,WeatherCatV1.13B119,2013-03-02 22:15:00,
2013-03-02 17:20:00,32.6,23.6,29.62,SE,135,1.0,4.0,69,0.00,,,0.00,WeatherCatV1.13B119,2013-03-02 22:20:00,
2013-03-02 17:25:00,32.3,23.6,29.62,SE,135,1.0,5.0,70,0.00,,,0.00,WeatherCatV1.13B119,2013-03-02 22:25:00,
2013-03-02 17:30:00,32.3,23.6,29.62,SE,135,1.0,5.0,70,0.00,,,0.00,WeatherCatV1.13B119,2013-03-02 22:30:00,
2013-03-02 17:35:00,32.3,23.6,29.62,SE,135,1.0,5.0,70,0.00,,,0.00,WeatherCatV1.13B119,2013-03-02 22:35:00,
2013-03-02 17:40:00,31.5,24.2,29.63,SE,135,1.0,5.0,74,0.00,,,0.00,WeatherCatV1.13B119,2013-03-02 22:40:00,
2013-03-02 17:45:00,31.5,24.2,29.63,SE,135,1.0,5.0,74,0.00,,,0.00,WeatherCatV1.13B119,2013-03-02 22:45:00,
2013-03-02 17:50:00,31.5,24.2,29.63,SE,135,1.0,5.0,74,0.00,,,0.00,WeatherCatV1.13B119,2013-03-02 22:50:00,
2013-03-02 17:55:00,30.8,24.5,29.64,NE,45,2.0,5.0,77,0.00,,,0.00,WeatherCatV1.13B119,2013-03-02 22:55:00,
2013-03-02 18:00:00,30.8,24.5,29.64,NE,45,2.0,5.0,77,0.00,,,0.00,WeatherCatV1.13B119,2013-03-02 23:00:00,
2013-03-02 18:05:00,30.8,24.5,29.64,NE,45,2.0,5.0,77,0.00,,,0.00,WeatherCatV1.13B119,2013-03-02 23:05:00,
2013-03-02 18:10:00,30.4,24.4,29.64,ENE,68,2.0,6.0,78,0.00,,,0.00,WeatherCatV1.13B119,2013-03-02 23:10:00,
2013-03-02 18:15:00,30.4,24.4,29.64,ENE,68,2.0,6.0,78,0.00,,,0.00,WeatherCatV1.13B119,2013-03-02 23:15:00,
2013-03-02 18:20:00,30.4,24.4,29.64,ENE,68,2.0,6.0,78,0.00,,,0.00,WeatherCatV1.13B119,2013-03-02 23:20:00,
2013-03-02 18:25:00,30.3,24.3,29.65,ENE,68,2.0,5.0,78,0.00,,,0.00,WeatherCatV1.13B119,2013-03-02 23:25:00,
2013-03-02 18:30:00,30.3,24.3,29.65,ENE,68,2.0,5.0,78,0.00,,,0.00,WeatherCatV1.13B119,2013-03-02 23:30:00,
2013-03-02 18:35:00,30.3,24.3,29.65,ENE,68,2.0,5.0,78,0.00,,,0.00,WeatherCatV1.13B119,2013-03-02 23:35:00,
2013-03-02 18:40:00,30.4,24.1,29.65,East,90,2.0,6.0,77,0.00,,,0.00,WeatherCatV1.13B119,2013-03-02 23:40:00,
2013-03-02 18:45:00,30.4,24.1,29.65,East,90,2.0,6.0,77,0.00,,,0.00,WeatherCatV1.13B119,2013-03-02 23:45:00,
2013-03-02 18:50:00,30.4,24.1,29.65,East,90,2.0,6.0,77,0.00,,,0.00,WeatherCatV1.13B119,2013-03-02 23:50:00,
2013-03-02 18:55:00,30.4,24.1,29.66,West,270,1.0,4.0,77,0.00,,,0.00,WeatherCatV1.13B119,2013-03-02 23:55:00,
2013-03-02 19:00:00,30.4,24.1,29.66,West,270,1.0,4.0,77,0.00,,,0.00,WeatherCatV1.13B119,2013-03-03 00:00:00,
2013-03-02 19:05:00,30.4,24.1,29.66,West,270,1.0,4.0,77,0.00,,,0.00,WeatherCatV1.13B119,2013-03-03 00:05:00,
2013-03-02 19:10:00,30.3,23.7,29.65,ESE,112,2.0,7.0,76,0.00,,,0.00,WeatherCatV1.13B119,2013-03-03 00:10:00,
2013-03-02 19:15:00,30.3,23.7,29.65,ESE,112,2.0,7.0,76,0.00,,,0.00,WeatherCatV1.13B119,2013-03-03 00:15:00,
2013-03-02 19:20:00,30.3,23.7,29.65,ESE,112,2.0,7.0,76,0.00,,,0.00,WeatherCatV1.13B119,2013-03-03 00:20:00,
2013-03-02 19:25:00,30.1,24.1,29.65,ESE,112,2.0,7.0,78,0.00,,,0.00,WeatherCatV1.13B119,2013-03-03 00:25:00,
2013-03-02 19:30:00,30.1,24.1,29.65,ESE,112,2.0,7.0,78,0.00,,,0.00,WeatherCatV1.13B119,2013-03-03 00:30:00,
2013-03-02 19:35:00,30.1,24.1,29.65,ESE,112,2.0,7.0,78,0.00,,,0.00,WeatherCatV1.13B119,2013-03-03 00:35:00,
2013-03-02 19:40:00,29.9,23.9,29.65,East,90,1.0,4.0,78,0.00,,,0.00,WeatherCatV1.13B119,2013-03-03 00:40:00,
2013-03-02 19:45:00,29.9,23.9,29.65,East,90,1.0,4.0,78,0.00,,,0.00,WeatherCatV1.13B119,2013-03-03 00:45:00,
2013-03-02 19:50:00,29.9,23.9,29.65,East,90,1.0,4.0,78,0.00,,,0.00,WeatherCatV1.13B119,2013-03-03 00:50:00,
2013-03-02 19:55:00,29.8,23.8,29.64,ENE,68,2.0,7.0,78,0.00,,,0.00,WeatherCatV1.13B119,2013-03-03 00:55:00,
2013-03-02 20:00:00,29.8,23.8,29.64,ENE,68,2.0,7.0,78,0.00,,,0.00,WeatherCatV1.13B119,2013-03-03 01:00:00,
2013-03-02 20:05:00,29.8,23.8,29.64,ENE,68,2.0,7.0,78,0.00,,,0.00,WeatherCatV1.13B119,2013-03-03 01:05:00,
2013-03-02 20:10:00,29.7,24.0,29.64,ENE,68,2.0,6.0,79,0.00,,,0.00,WeatherCatV1.13B119,2013-03-03 01:10:00,
2013-03-02 20:15:00,29.7,24.0,29.64,ENE,68,2.0,6.0,79,0.00,,,0.00,WeatherCatV1.13B119,2013-03-03 01:15:00,
2013-03-02 20:20:00,29.7,24.0,29.64,ENE,68,2.0,6.0,79,0.00,,,0.00,WeatherCatV1.13B119,2013-03-03 01:20:00,
2013-03-02 20:25:00,29.7,23.7,29.64,ESE,112,1.0,6.0,78,0.00,,,0.00,WeatherCatV1.13B119,2013-03-03 01:25:00,
2013-03-02 20:30:00,29.7,23.7,29.64,ESE,112,1.0,6.0,78,0.00,,,0.00,WeatherCatV1.13B119,2013-03-03 01:30:00,
2013-03-02 20:35:00,29.7,23.7,29.64,ESE,112,1.0,6.0,78,0.00,,,0.00,WeatherCatV1.13B119,2013-03-03 01:35:00,
2013-03-02 20:40:00,29.7,24.0,29.64,SE,135,1.0,10.0,79,0.00,,,0.00,WeatherCatV1.13B119,2013-03-03 01:40:00,
2013-03-02 20:45:00,29.7,24.0,29.64,SE,135,1.0,10.0,79,0.00,,,0.00,WeatherCatV1.13B119,2013-03-03 01:45:00,
2013-03-02 20:50:00,29.7,24.0,29.64,SE,135,1.0,10.0,79,0.00,,,0.00,WeatherCatV1.13B119,2013-03-03 01:50:00,
2013-03-02 20:55:00,29.6,23.6,29.64,NE,45,1.0,6.0,78,0.00,,,0.00,WeatherCatV1.13B119,2013-03-03 01:55:00,
2013-03-02 21:00:00,29.6,23.6,29.64,NE,45,1.0,6.0,78,0.00,,,0.00,WeatherCatV1.13B119,2013-03-03 02:00:00,
2013-03-02 21:05:00,29.6,23.6,29.64,NE,45,1.0,6.0,78,0.00,,,0.00,WeatherCatV1.13B119,2013-03-03 02:05:00,
2013-03-02 21:10:00,29.2,24.4,29.64,SE,135,1.0,6.0,82,0.00,,,0.00,WeatherCatV1.13B119,2013-03-03 02:10:00,
2013-03-02 21:15:00,29.2,24.4,29.64,SE,135,1.0,6.0,82,0.00,,,0.00,WeatherCatV1.13B119,2013-03-03 02:15:00,
2013-03-02 21:20:00,29.2,24.4,29.64,SE,135,1.0,6.0,82,0.00,,,0.00,WeatherCatV1.13B119,2013-03-03 02:20:00,
2013-03-02 21:25:00,29.0,24.2,29.64,ENE,68,1.0,5.0,82,0.00,,,0.00,WeatherCatV1.13B119,2013-03-03 02:25:00,
2013-03-02 21:30:00,29.0,24.2,29.64,ENE,68,1.0,5.0,82,0.00,,,0.00,WeatherCatV1.13B119,2013-03-03 02:30:00,
2013-03-02 21:35:00,29.0,24.2,29.64,ENE,68,1.0,5.0,82,0.00,,,0.00,WeatherCatV1.13B119,2013-03-03 02:35:00,
2013-03-02 21:40:00,29.1,24.0,29.63,SE,135,1.0,5.0,81,0.00,,,0.00,WeatherCatV1.13B119,2013-03-03 02:40:00,
2013-03-02 21:45:00,29.1,24.0,29.63,SE,135,1.0,5.0,81,0.00,,,0.00,WeatherCatV1.13B119,2013-03-03 02:45:00,
2013-03-02 21:50:00,29.1,24.0,29.63,SE,135,1.0,5.0,81,0.00,,,0.00,WeatherCatV1.13B119,2013-03-03 02:50:00,
2013-03-02 21:55:00,29.2,23.5,29.63,NE,45,2.0,7.0,79,0.00,,,0.00,WeatherCatV1.13B119,2013-03-03 02:55:00,
2013-03-02 22:00:00,29.2,23.5,29.63,NE,45,2.0,7.0,79,0.00,,,0.00,WeatherCatV1.13B119,2013-03-03 03:00:00,
2013-03-02 22:05:00,29.2,23.5,29.63,NE,45,2.0,7.0,79,0.00,,,0.00,WeatherCatV1.13B119,2013-03-03 03:05:00,
2013-03-02 22:10:00,29.3,23.3,29.63,NE,45,2.0,6.0,78,0.00,,,0.00,WeatherCatV1.13B119,2013-03-03 03:10:00,
2013-03-02 22:15:00,29.3,23.3,29.63,NE,45,2.0,6.0,78,0.00,,,0.00,WeatherCatV1.13B119,2013-03-03 03:15:00,
2013-03-02 22:20:00,29.3,23.3,29.63,NE,45,2.0,6.0,78,0.00,,,0.00,WeatherCatV1.13B119,2013-03-03 03:20:00,
2013-03-02 22:25:00,29.3,23.3,29.63,ENE,68,2.0,4.0,78,0.00,,,0.00,WeatherCatV1.13B119,2013-03-03 03:25:00,
2013-03-02 22:30:00,29.3,23.3,29.63,ENE,68,2.0,4.0,78,0.00,,,0.00,WeatherCatV1.13B119,2013-03-03 03:30:00,
2013-03-02 22:35:00,29.3,23.3,29.63,ENE,68,2.0,4.0,78,0.00,,,0.00,WeatherCatV1.13B119,2013-03-03 03:35:00,
2013-03-02 22:40:00,29.2,23.5,29.63,NE,45,2.0,10.0,79,0.00,,,0.00,WeatherCatV1.13B119,2013-03-03 03:40:00,
2013-03-02 22:45:00,29.2,23.5,29.63,NE,45,2.0,10.0,79,0.00,,,0.00,WeatherCatV1.13B119,2013-03-03 03:45:00,
2013-03-02 22:50:00,29.2,23.5,29.63,NE,45,2.0,10.0,79,0.00,,,0.00,WeatherCatV1.13B119,2013-03-03 03:50:00,
2013-03-02 22:55:00,28.8,23.7,29.62,ENE,68,2.0,4.0,81,0.00,,,0.00,WeatherCatV1.13B119,2013-03-03 03:55:00,
2013-03-02 23:00:00,28.8,23.7,29.62,ENE,68,2.0,4.0,81,0.00,,,0.00,WeatherCatV1.13B119,2013-03-03 04:00:00,
2013-03-02 23:05:00,28.8,23.7,29.62,ENE,68,2.0,4.0,81,0.00,,,0.00,WeatherCatV1.13B119,2013-03-03 04:05:00,
2013-03-02 23:10:00,28.5,24.0,29.62,ENE,68,2.0,5.0,83,0.00,,,0.00,WeatherCatV1.13B119,2013-03-03 04:10:00,
2013-03-02 23:15:00,28.5,24.0,29.62,ENE,68,2.0,5.0,83,0.00,,,0.00,WeatherCatV1.13B119,2013-03-03 04:15:00,
2013-03-02 23:20:00,28.5,24.0,29.62,ENE,68,2.0,5.0,83,0.00,,,0.00,WeatherCatV1.13B119,2013-03-03 04:20:00,
2013-03-02 23:25:00,28.6,23.8,29.62,NE,45,2.0,8.0,82,0.00,,,0.00,WeatherCatV1.13B119,2013-03-03 04:25:00,
2013-03-02 23:30:00,28.6,23.8,29.62,NE,45,2.0,8.0,82,0.00,,,0.00,WeatherCatV1.13B119,2013-03-03 04:30:00,
2013-03-02 23:35:00,28.6,23.8,29.62,NE,45,2.0,8.0,82,0.00,,,0.00,WeatherCatV1.13B119,2013-03-03 04:35:00,
2013-03-02 23:40:00,28.8,23.4,29.62,ENE,68,2.0,6.0,80,0.00,,,0.00,WeatherCatV1.13B119,2013-03-03 04:40:00,
2013-03-02 23:45:00,28.8,23.4,29.62,ENE,68,2.0,6.0,80,0.00,,,0.00,WeatherCatV1.13B119,2013-03-03 04:45:00,
2013-03-02 23:50:00,28.8,23.4,29.62,ENE,68,2.0,6.0,80,0.00,,,0.00,WeatherCatV1.13B119,2013-03-03 04:50:00,
2013-03-02 23:55:00,28.8,23.7,29.62,ENE,68,2.0,6.0,81,0.00,,,0.00,WeatherCatV1.13B119,2013-03-03 04:55:00,